RADUGA-1 3 [-]

Last updated on June 24, 2019, 3:40 a.m. UTC

1 22981U 94008A   19174.63543959  .00000038  00000-0  00000+0 0  9999
2 22981  14.9381   9.1236 0003470   3.2832 184.1810  1.00312648 92934
UTC
Height (km)
Latitude
Longitude
Inclination
Orbital Period
UTC large
Height (km)
Speed (km/s)
/
Latitude / Longitude
Inclination (degrees)
Orbital Period (minutes)
Azimuth
Elevation
Range (km)
Doppler Factor
iOS Compass Heading
iOS Angle

Next 30 passes for location: Hong Kong

Rise time Rise Azimuth (degrees) Set time Set Azimuth (degrees) Duration Max altitude (degrees)

No matching passes for this satellites